Location: Ajisawe
(8.4333°N, 4.3833°E)
Time: 22:32:46
(UTC+00:00)

STARLINK-1186 - Pass Details

Date: 07 June 2020
Orbit: 548 x 550 km, 53.0° (Epoch: 10 July)

Event Time Altitude Azimuth Distance (km) Brightness Sun altitude
Exits shadow 03:12:39 10° 125° (SE) 1,832 6.5 -29.6°
Enters shadow 04:13:56 -68° 220° (SW) 12,392 10.4 -16.4°
Maximum altitude 04:51:56 42° 305° (NW) 783 4.2 -8.0°
